Starlink 34127

operational
NORAD ID: 63810 Int'l Des: 2025-092 Owner: SPXS Country: US Constellation: starlink
LEOCIRCULAR

关于 Starlink 34127

正在加载描述...

实时位置

正在加载3D地球...

即将过境

高度历史

Altitude vs Time

uPlot chart will show altitude changes over time

两行轨道根数

1 63810U 25092G 25303.75110718 .00051681 00000-0 18737-2 0 9998
2 63810 42.9986 186.2463 0002493 287.0533 73.0046 15.27591405 28744
Epoch: Oct 30, 2025 • Age: 12 hours

当前状态

高度 488.8 km
速度 7.62 km/s
星下点 -25.96°S, 94.61°W
发射日期 May 4, 2025
运行时间 0.4 years
类型 internet

技术详情

分类 Payload
质量 575.00 kg
干质量 530.00 kg
总质量 575.00 kg
长度 0.30 m
直径 4.10 m
跨度 29.00 m
形状 Box + pan
制造商 SPXS
平台类型 Starlink V2MO
阶段状态 In Orbit
所有者/国家 SPXS/US

大型星座

Loading constellations...